Cloud_Cover
68 76 76 76 76 76 76 80 80 68 48 36 44 48 64 76 80 88 88 88 80 76 76 76 76 76 68 68 64 56 56 56 64 64 64 64 64 64 64 64 56 64 68 64 64 56 48 36 36 36 36 36 36 32 32 32 32 32 24 24 24 32 32 36 36 36 36 32 24
80 80 80 80 76 76 76 68 68 56 44 32 44 56 64 56 76 80 88 88 80 80 80 80 80 80 76 68 68 68 68 76 76 68 68 64 64 64 64 64 68 68 64 56 48 44 44 44 44 48 44 36 36 32 24 24 24 24 20 20 24 32 36 36 36 36 32 32 24
88 88 80 76 76 76 76 68 64 56 44 48 56 48 44 48 76 80 88 88 88 88 88 80 80 80 76 76 76 80 80 80 80 80 76 68 64 64 64 68 64 56 48 44 44 44 44 44 48 48 44 36 32 24 24 20 20 20 20 20 24 32 36 36 32 32 32 32 32
80 80 76 76 68 68 68 68 64 64 64 48 44 44 44 64 80 88 88 88 88 88 80 80 76 80 80 80 88 88 88 88 80 80 76 68 64 64 64 56 48 48 44 44 44 44 44 44 44 36 32 24 20 20 20 20 20 20 20 32 32 36 36 36 36 36 36 36 36
80 76 76 68 68 68 68 68 68 64 56 48 44 56 68 80 88 88 88 80 80 80 80 76 80 88 88 88 88 88 88 88 80 76 68 64 64 56 48 48 48 48 56 48 48 48 44 36 36 32 24 20 20 20 20 24 20 20 24 36 36 36 36 36 36 36 36 36 32
80 80 76 76 76 76 76 80 76 64 56 48 68 80 80 88 80 80 80 80 80 80 80 88 88 88 88 88 88 88 88 88 80 76 68 68 64 56 56 64 64 56 56 48 48 36 32 36 36 32 32 24 24 24 24 24 24 32 36 44 44 44 44 44 36 36 36 32 24
80 76 80 80 80 88 80 76 76 76 76 80 88 88 88 88 80 80 80 80 80 80 80 88 88 88 92 92 92 88 88 76 76 68 68 68 64 64 64 68 56 56 56 48 36 36 44 44 36 36 36 32 36 36 36 36 44 44 44 44 44 36 36 36 36 32 24 24 24
88 88 88 88 88 88 88 80 80 80 88 88 88 88 80 80 80 76 76 76 80 88 88 88 92 92 92 92 88 88 80 76 76 76 68 68 68 64 56 56 56 48 48 44 36 44 48 44 44 44 44 44 44 48 48 48 48 44 44 44 36 32 32 24 24 24 24 24 24
88 88 88 88 88 88 88 80 88 88 80 80 80 80 80 80 80 80 80 80 88 88 88 88 88 88 88 88 88 80 76 76 76 68 68 68 68 64 56 56 48 48 44 44 48 56 56 56 48 48 48 48 48 48 48 48 48 44 36 36 32 32 32 32 32 24 24 24 24
88 88 88 88 88 88 88 80 80 80 80 80 80 80 80 80 92 92 88 88 88 92 92 88 88 88 88 80 80 80 80 76 76 68 68 68 64 56 56 48 48 48 48 56 56 56 64 64 64 56 56 56 56 48 48 48 44 36 32 32 32 32 24 24 32 32 24 24 20
88 88 88 88 88 88 88 80 80 80 80 80 80 80 88 92 92 88 88 92 92 88 88 88 88 88 88 88 80 80 80 80 76 68 64 64 56 56 48 48 48 56 56 64 64 64 68 64 64 56 48 48 48 48 44 36 36 36 32 32 32 32 24 24 24 24 24 20 12
88 88 88 88 88 88 88 80 80 80 80 88 88 92 92 92 92 92 92 92 88 88 88 88 88 88 88 88 88 88 80 80 76 68 64 56 56 48 48 48 56 64 64 64 68 68 64 56 56 48 48 44 44 44 36 32 36 32 32 32 32 24 24 20 20 20 12 8 8
88 88 88 88 88 88 88 88 88 88 92 92 92 92 92 92 92 92 92 88 88 88 88 88 88 92 92 92 92 88 80 76 68 64 56 48 56 48 56 64 64 64 68 64 64 64 64 56 56 48 44 36 36 36 36 32 32 32 32 24 24 20 20 20 12 8 8 0 8
88 88 88 88 88 88 88 92 92 92 92 92 92 92 92 92 92 88 88 88 88 88 88 88 92 92 92 92 92 88 76 68 68 64 56 56 64 64 64 68 68 68 68 64 64 64 56 56 48 44 36 36 36 36 32 32 32 32 24 24 20 12 12 12 8 8 0 0 0
88 88 88 92 92 92 92 92 92 92 92 92 92 92 92 88 88 88 88 88 88 92 92 92 92 92 92 92 88 80 68 64 56 64 68 64 64 68 68 68 76 68 68 64 64 56 48 48 44 44 44 36 36 36 32 32 24 24 20 20 12 12 8 8 8 0 0 0 0
92 92 92 92 92 92 92 92 92 92 92 92 88 88 88 88 80 88 88 92 92 92 92 92 92 92 88 80 68 64 64 64 64 64 68 68 68 76 76 76 76 68 68 64 56 48 44 44 44 44 44 36 36 36 32 32 24 24 20 12 12 8 8 0 0 0 0 0 0
92 92 92 92 92 92 92 92 92 88 88 88 80 80 80 80 88 88 92 92 92 92 92 92 88 80 68 56 64 64 64 76 68 68 76 76 76 80 80 76 76 68 64 56 48 48 44 36 36 36 36 36 36 32 32 32 24 24 20 20 12 8 0 0 0 0 0 0 0
92 92 92 92 88 88 88 88 88 88 88 88 88 88 88 88 92 92 92 92 92 92 92 88 76 64 64 64 68 76 76 76 76 76 80 80 80 80 76 76 68 68 64 56 48 44 44 36 36 36 36 36 36 32 32 32 24 24 20 20 12 8 0 0 0 0 0 0 0
88 88 88 88 88 88 88 88 88 88 88 92 92 92 92 92 92 92 92 92 88 88 80 76 64 64 68 80 80 80 80 80 80 80 80 80 80 80 76 68 68 64 56 56 48 44 44 36 36 36 36 36 36 36 32 32 32 24 20 12 12 8 0 0 0 0 0 0 0
88 88 88 88 80 80 80 80 80 88 88 88 92 92 92 92 92 92 88 80 76 76 76 76 76 76 80 80 88 88 88 88 88 80 80 80 80 76 68 68 64 56 56 48 48 44 36 36 36 36 36 36 36 36 32 32 24 20 20 12 8 8 0 0 0 0 0 0 0
80 80 80 80 80 80 80 76 76 76 76 76 76 80 88 80 88 88 88 68 68 68 80 88 88 88 88 88 88 88 88 88 88 88 88 80 80 76 68 64 64 56 48 48 44 44 44 36 36 36 36 36 36 32 32 24 20 12 12 8 8 0 0 0 0 0 0 0 0
80 80 88 88 80 80 80 80 80 76 68 68 68 76 80 76 80 80 80 80 80 88 88 88 88 92 92 92 88 88 88 88 88 88 80 80 76 68 64 64 56 48 48 44 44 44 36 36 36 36 36 32 32 24 24 20 20 12 8 0 0 0 0 0 0 0 0 0 0
76 80 88 80 88 80 80 80 76 68 64 56 56 68 80 88 88 88 88 88 92 92 92 92 92 92 92 92 88 88 88 88 88 80 80 76 76 68 64 56 48 48 44 44 36 36 36 36 36 32 24 24 24 20 20 12 12 8 0 0 0 0 0 0 0 0 0 0 0
68 68 76 76 68 68 64 56 76 80 76 68 76 88 92 92 92 92 92 92 92 92 92 92 92 92 92 92 88 88 88 88 88 80 76 76 68 68 64 48 44 44 36 36 36 36 36 36 32 24 20 20 12 12 12 8 8 0 0 0 0 0 0 0 0 0 0 0 0
56 56 56 68 68 68 64 64 68 76 80 88 92 92 92 92 92 92 92 92 92 92 92 92 92 92 92 88 88 88 88 88 80 80 76 68 68 64 56 48 44 36 36 36 36 36 32 32 32 20 12 8 8 8 8 8 8 0 0 0 0 0 0 0 0 0 0 0 0
64 56 56 68 64 64 64 64 76 88 92 92 92 92 92 92 92 92 92 92 92 92 92 92 92 88 88 88 92 88 80 80 80 80 76 68 64 56 48 44 44 44 44 36 36 32 24 24 20 12 8 0 0 0 8 8 0 0 0 0 0 0 0 0 0 0 0 0 0
68 64 64 64 56 56 56 64 88 92 92 92 92 92 92 92 92 92 92 92 92 92 92 92 88 88 92 92 92 92 88 80 80 76 76 68 64 56 48 44 44 44 36 36 32 24 24 20 12 8 8 0 0 0 0 0 0 0 0 0 0 0 0 0 0 0 0 0 0
56 56 56 48 48 48 64 76 88 88 88 92 92 92 92 92 92 92 92 92 88 88 88 88 88 92 92 92 92 88 88 80 76 76 68 68 64 56 56 48 48 44 44 32 24 20 20 20 12 12 8 0 0 0 0 0 0 0 0 0 0 0 0 0 0 0 0 0 0
48 48 48 44 48 56 64 76 80 88 88 92 92 92 92 92 88 88 88 88 88 88 88 88 92 92 92 88 88 88 88 76 76 76 76 68 64 56 56 56 48 44 36 24 24 20 20 20 12 12 8 0 0 0 0 0 0 0 0 0 0 0 0 0 0 0 0 0 0
44 44 36 44 48 48 56 64 64 68 76 80 88 88 88 92 92 88 88 88 88 88 92 92 92 92 92 80 92 92 88 80 76 76 76 68 64 64 56 48 48 44 36 32 24 20 20 20 12 12 8 0 0 0 0 0 0 0 0 0 0 0 0 0 0 0 0 0 0
32 36 44 44 44 48 56 48 64 64 56 56 56 64 76 76 80 80 80 68 80 80 88 92 92 92 92 88 92 92 88 80 76 76 68 68 68 64 56 56 48 44 36 32 24 24 20 20 12 12 8 0 0 0 0 0 0 0 0 0 0 0 0 0 0 0 0 0 0
32 32 36 44 36 36 32 32 44 48 48 48 48 48 48 56 56 56 56 64 80 88 88 92 88 88 92 92 92 88 88 80 80 76 68 68 68 64 64 56 48 48 44 36 32 32 24 20 12 8 8 0 0 0 0 0 0 0 0 0 0 0 0 0 0 0 0 0 0
32 32 32 24 24 24 20 24 32 36 44 48 48 48 56 56 56 56 56 68 76 80 88 80 88 88 92 92 88 88 88 80 80 76 68 68 68 68 64 64 64 56 48 36 32 24 20 20 12 8 8 0 0 0 0 0 0 0 0 0 0 0 0 0 0 0 0 0 0
32 24 24 20 20 12 12 12 24 32 44 48 48 48 48 48 48 64 76 76 68 80 88 80 88 92 92 92 92 92 92 80 76 76 76 68 68 68 68 68 64 56 48 36 32 24 20 20 12 8 0 0 0 0 0 0 0 0 0 0 0 0 0 0 0 0 0 0 0
24 20 20 12 12 8 8 8 12 32 44 44 44 44 44 48 68 76 76 68 68 68 76 76 88 92 92 92 92 92 92 92 80 76 76 68 64 64 64 64 56 56 48 36 32 24 20 12 12 8 0 0 0 0 0 0 0 0 0 0 0 0 0 0 0 0 0 0 0
20 12 12 8 8 0 0 0 8 24 32 36 32 36 48 76 76 68 68 64 64 76 80 88 92 92 92 92 92 92 92 88 80 76 68 64 56 48 56 56 56 56 48 36 32 24 20 12 12 8 8 0 0 0 0 0 0 0 0 0 0 0 0 0 0 0 0 0 0
12 12 8 8 8 8 8 0 12 20 24 32 36 48 64 76 68 64 64 64 76 80 88 92 92 92 92 92 92 88 80 80 76 68 64 56 48 44 44 48 48 56 48 44 32 24 20 12 12 8 8 8 0 0 0 0 0 0 0 0 0 0 0 0 0 0 0 0 0
12 12 20 20 20 12 12 20 20 24 36 48 56 56 64 64 56 56 56 68 88 88 88 92 92 92 88 88 88 76 68 68 64 64 56 48 44 44 44 36 48 56 56 44 36 24 20 12 12 8 8 8 0 0 0 0 0 0 0 0 0 0 0 0 0 0 0 0 0
24 24 24 24 24 20 20 20 20 32 48 56 56 56 56 48 48 56 68 88 88 88 88 80 80 80 76 76 76 76 68 64 64 56 56 48 44 36 36 36 44 48 48 44 36 24 20 20 12 12 12 8 0 0 0 0 0 0 0 0 0 0 0 0 0 0 0 0 0
32 32 24 20 20 20 20 20 20 36 56 56 56 56 56 48 48 68 80 80 80 76 68 76 76 76 76 76 76 76 68 64 64 56 48 48 44 36 36 36 36 44 44 36 32 24 20 20 20 12 12 12 8 8 0 0 0 0 0 0 0 0 0 0 0 0 0 0 0
24 20 20 12 12 12 20 24 24 36 48 48 56 56 56 56 64 68 76 76 76 68 64 68 68 76 76 76 76 76 76 68 64 56 48 48 48 44 44 36 36 32 32 32 24 24 24 24 20 20 20 20 12 8 0 0 0 0 0 0 0 0 0 0 0 0 0 0 0